"date_time","site_id","latitude","longitude","notes","water_temperature","water_temperature_units","water_hub_qa_qc"
"2019-03-29 17:14:00","Cemetery_Creek","49.07161","-117.77783","N/A","10.28259563446","degrees Celsius","N/A"
"2019-03-29 17:14:00","Cemetery_Creek","49.07161","-117.77783","N/A","9.5425634384155","degrees Celsius","N/A"
"2019-03-29 17:15:00","Cemetery_Creek","49.07161","-117.77783","N/A","8.8132572174072","degrees Celsius","N/A"
"2019-03-29 17:15:00","Cemetery_Creek","49.07161","-117.77783","N/A","8.1483011245728","degrees Celsius","N/A"
"2019-03-29 17:16:00","Cemetery_Creek","49.07161","-117.77783","N/A","7.6549458503723","degrees Celsius","N/A"
"2019-03-29 17:16:00","Cemetery_Creek","49.07161","-117.77783","N/A","7.3224678039551","degrees Celsius","N/A"
"2019-03-29 17:30:00","Cemetery_Creek","49.07161","-117.77783","N/A","3.6973850727081","degrees Celsius","N/A"
"2019-03-30 01:30:00","Cemetery_Creek","49.07161","-117.77783","N/A","2.2280468940735","degrees Celsius","N/A"
"2019-03-30 09:30:00","Cemetery_Creek","49.07161","-117.77783","N/A","2.7643020153046","degrees Celsius","N/A"
"2019-03-30 17:30:00","Cemetery_Creek","49.07161","-117.77783","N/A","4.1263890266418","degrees Celsius","N/A"
"2019-03-31 01:30:00","Cemetery_Creek","49.07161","-117.77783","N/A","2.7857520580292","degrees Celsius","N/A"
"2019-03-31 09:30:00","Cemetery_Creek","49.07161","-117.77783","N/A","3.2362060546875","degrees Celsius","N/A"
"2019-03-31 17:30:00","Cemetery_Creek","49.07161","-117.77783","N/A","3.6652100086212","degrees Celsius","N/A"
"2019-04-01 01:30:00","Cemetery_Creek","49.07161","-117.77783","N/A","2.4854490756989","degrees Celsius","N/A"
"2019-04-01 09:30:00","Cemetery_Creek","49.07161","-117.77783","N/A","3.2898321151733","degrees Celsius","N/A"
"2019-04-01 17:30:00","Cemetery_Creek","49.07161","-117.77783","N/A","4.4266920089722","degrees Celsius","N/A"
"2019-04-02 01:30:00","Cemetery_Creek","49.07161","-117.77783","N/A","2.6141500473022","degrees Celsius","N/A"
"2019-04-02 09:30:00","Cemetery_Creek","49.07161","-117.77783","N/A","3.2147560119629","degrees Celsius","N/A"
"2019-04-02 17:30:00","Cemetery_Creek","49.07161","-117.77783","N/A","4.9307708740234","degrees Celsius","N/A"
"2019-04-03 01:30:00","Cemetery_Creek","49.07161","-117.77783","N/A","3.1289548873901","degrees Celsius","N/A"
"2019-04-03 09:30:00","Cemetery_Creek","49.07161","-117.77783","N/A","3.6115839481354","degrees Celsius","N/A"
"2019-04-03 17:30:00","Cemetery_Creek","49.07161","-117.77783","N/A","4.19074010849","degrees Celsius","N/A"
"2019-04-04 01:30:00","Cemetery_Creek","49.07161","-117.77783","N/A","3.4185330867767","degrees Celsius","N/A"
"2019-04-04 09:30:00","Cemetery_Creek","49.07161","-117.77783","N/A","3.8475370407104","degrees Celsius","N/A"
"2019-04-04 17:30:00","Cemetery_Creek","49.07161","-117.77783","N/A","4.9951219558716","degrees Celsius","N/A"
"2019-04-05 01:30:00","Cemetery_Creek","49.07161","-117.77783","N/A","3.7081100940704","degrees Celsius","N/A"
"2019-04-05 09:30:00","Cemetery_Creek","49.07161","-117.77783","N/A","4.19074010849","degrees Celsius","N/A"
"2019-04-05 17:30:00","Cemetery_Creek","49.07161","-117.77783","N/A","4.5553932189941","degrees Celsius","N/A"
"2019-04-06 01:30:00","Cemetery_Creek","49.07161","-117.77783","N/A","4.1156640052795","degrees Celsius","N/A"
"2019-04-06 09:30:00","Cemetery_Creek","49.07161","-117.77783","N/A","4.1585650444031","degrees Celsius","N/A"
"2019-04-06 17:30:00","Cemetery_Creek","49.07161","-117.77783","N/A","4.3730659484863","degrees Celsius","N/A"
"2019-04-07 01:30:00","Cemetery_Creek","49.07161","-117.77783","N/A","3.7081100940704","degrees Celsius","N/A"
"2019-04-07 09:30:00","Cemetery_Creek","49.07161","-117.77783","N/A","3.6652100086212","degrees Celsius","N/A"
"2019-04-07 17:30:00","Cemetery_Creek","49.07161","-117.77783","N/A","5.2417988777161","degrees Celsius","N/A"
"2019-04-08 01:30:00","Cemetery_Creek","49.07161","-117.77783","N/A","3.8797121047974","degrees Celsius","N/A"
"2019-04-08 09:30:00","Cemetery_Creek","49.07161","-117.77783","N/A","4.2765412330627","degrees Celsius","N/A"
"2019-04-08 17:30:00","Cemetery_Creek","49.07161","-117.77783","N/A","5.1023731231689","degrees Celsius","N/A"
"2019-04-09 01:30:00","Cemetery_Creek","49.07161","-117.77783","N/A","4.3837909698486","degrees Celsius","N/A"
"2019-04-09 09:30:00","Cemetery_Creek","49.07161","-117.77783","N/A","4.5661177635193","degrees Celsius","N/A"
"2019-04-09 17:30:00","Cemetery_Creek","49.07161","-117.77783","N/A","6.1427068710327","degrees Celsius","N/A"
"2019-04-10 01:30:00","Cemetery_Creek","49.07161","-117.77783","N/A","4.0942139625549","degrees Celsius","N/A"
"2019-04-10 09:30:00","Cemetery_Creek","49.07161","-117.77783","N/A","4.8342461585999","degrees Celsius","N/A"
"2019-04-10 17:30:00","Cemetery_Creek","49.07161","-117.77783","N/A","5.6815280914307","degrees Celsius","N/A"
"2019-04-11 01:30:00","Cemetery_Creek","49.07161","-117.77783","N/A","4.0191378593445","degrees Celsius","N/A"
"2019-04-11 09:30:00","Cemetery_Creek","49.07161","-117.77783","N/A","4.5661177635193","degrees Celsius","N/A"
"2019-04-11 17:30:00","Cemetery_Creek","49.07161","-117.77783","N/A","5.853129863739","degrees Celsius","N/A"
"2019-04-12 01:30:00","Cemetery_Creek","49.07161","-117.77783","N/A","3.6330349445343","degrees Celsius","N/A"
"2019-04-12 09:30:00","Cemetery_Creek","49.07161","-117.77783","N/A","4.4695920944214","degrees Celsius","N/A"
"2019-04-12 17:30:00","Cemetery_Creek","49.07161","-117.77783","N/A","5.7673292160034","degrees Celsius","N/A"
"2019-04-13 01:30:00","Cemetery_Creek","49.07161","-117.77783","N/A","4.1371140480042","degrees Celsius","N/A"
"2019-04-13 09:30:00","Cemetery_Creek","49.07161","-117.77783","N/A","4.780620098114","degrees Celsius","N/A"
"2019-04-13 17:30:00","Cemetery_Creek","49.07161","-117.77783","N/A","4.9414958953857","degrees Celsius","N/A"
"2019-04-14 01:30:00","Cemetery_Creek","49.07161","-117.77783","N/A","4.4374170303345","degrees Celsius","N/A"
"2019-04-14 09:30:00","Cemetery_Creek","49.07161","-117.77783","N/A","4.8020701408386","degrees Celsius","N/A"
"2019-04-14 17:30:00","Cemetery_Creek","49.07161","-117.77783","N/A","5.7244291305542","degrees Celsius","N/A"
"2019-04-15 01:30:00","Cemetery_Creek","49.07161","-117.77783","N/A","4.2121901512146","degrees Celsius","N/A"
"2019-04-15 09:30:00","Cemetery_Creek","49.07161","-117.77783","N/A","4.6197438240051","degrees Celsius","N/A"
"2019-04-15 17:30:00","Cemetery_Creek","49.07161","-117.77783","N/A","5.7244291305542","degrees Celsius","N/A"
"2019-04-16 01:30:00","Cemetery_Creek","49.07161","-117.77783","N/A","3.922611951828","degrees Celsius","N/A"
"2019-04-16 09:30:00","Cemetery_Creek","49.07161","-117.77783","N/A","4.7055439949036","degrees Celsius","N/A"
"2019-04-16 17:30:00","Cemetery_Creek","49.07161","-117.77783","N/A","6.5824370384216","degrees Celsius","N/A"
"2019-04-17 01:30:00","Cemetery_Creek","49.07161","-117.77783","N/A","5.1023731231689","degrees Celsius","N/A"
"2019-04-17 09:30:00","Cemetery_Creek","49.07161","-117.77783","N/A","5.853129863739","degrees Celsius","N/A"
"2019-04-17 17:30:00","Cemetery_Creek","49.07161","-117.77783","N/A","7.0650658607483","degrees Celsius","N/A"
"2019-04-18 01:30:00","Cemetery_Creek","49.07161","-117.77783","N/A","5.4348511695862","degrees Celsius","N/A"
"2019-04-18 09:30:00","Cemetery_Creek","49.07161","-117.77783","N/A","6.2499589920044","degrees Celsius","N/A"
"2019-04-18 17:30:00","Cemetery_Creek","49.07161","-117.77783","N/A","6.7862129211426","degrees Celsius","N/A"
"2019-04-19 01:30:00","Cemetery_Creek","49.07161","-117.77783","N/A","6.0354571342468","degrees Celsius","N/A"
"2019-04-19 09:30:00","Cemetery_Creek","49.07161","-117.77783","N/A","6.1748828887939","degrees Celsius","N/A"
"2019-04-19 17:30:00","Cemetery_Creek","49.07161","-117.77783","N/A","7.4189939498901","degrees Celsius","N/A"
"2019-04-20 01:30:00","Cemetery_Creek","49.07161","-117.77783","N/A","6.1856079101562","degrees Celsius","N/A"
"2019-04-20 09:30:00","Cemetery_Creek","49.07161","-117.77783","N/A","6.4322848320007","degrees Celsius","N/A"
"2019-04-20 17:30:00","Cemetery_Creek","49.07161","-117.77783","N/A","7.9016242027283","degrees Celsius","N/A"
"2019-04-21 01:30:00","Cemetery_Creek","49.07161","-117.77783","N/A","4.9843969345093","degrees Celsius","N/A"
"2019-04-21 09:30:00","Cemetery_Creek","49.07161","-117.77783","N/A","6.0461821556091","degrees Celsius","N/A"
"2019-04-21 17:30:00","Cemetery_Creek","49.07161","-117.77783","N/A","8.2019262313843","degrees Celsius","N/A"
"2019-04-22 01:30:00","Cemetery_Creek","49.07161","-117.77783","N/A","5.5421018600464","degrees Celsius","N/A"
"2019-04-22 09:30:00","Cemetery_Creek","49.07161","-117.77783","N/A","6.2177829742432","degrees Celsius","N/A"
"2019-04-22 17:30:00","Cemetery_Creek","49.07161","-117.77783","N/A","7.8801732063293","degrees Celsius","N/A"
"2019-04-23 01:30:00","Cemetery_Creek","49.07161","-117.77783","N/A","6.47518491745","degrees Celsius","N/A"
"2019-04-23 09:30:00","Cemetery_Creek","49.07161","-117.77783","N/A","7.4618949890137","degrees Celsius","N/A"
"2019-04-23 17:30:00","Cemetery_Creek","49.07161","-117.77783","N/A","8.4271535873413","degrees Celsius","N/A"
"2019-04-24 01:30:00","Cemetery_Creek","49.07161","-117.77783","N/A","6.2606840133667","degrees Celsius","N/A"
"2019-04-24 09:30:00","Cemetery_Creek","49.07161","-117.77783","N/A","6.9578151702881","degrees Celsius","N/A"
"2019-04-24 17:30:00","Cemetery_Creek","49.07161","-117.77783","N/A","8.0410499572754","degrees Celsius","N/A"
"2019-04-25 01:30:00","Cemetery_Creek","49.07161","-117.77783","N/A","5.2310738563538","degrees Celsius","N/A"
"2019-04-25 09:30:00","Cemetery_Creek","49.07161","-117.77783","N/A","6.1105318069458","degrees Celsius","N/A"
"2019-04-25 17:30:00","Cemetery_Creek","49.07161","-117.77783","N/A","8.4486036300659","degrees Celsius","N/A"
"2019-04-26 01:30:00","Cemetery_Creek","49.07161","-117.77783","N/A","6.3035840988159","degrees Celsius","N/A"
"2019-04-26 09:30:00","Cemetery_Creek","49.07161","-117.77783","N/A","6.989990234375","degrees Celsius","N/A"
"2019-04-26 17:30:00","Cemetery_Creek","49.07161","-117.77783","N/A","8.0088748931885","degrees Celsius","N/A"
"2019-04-27 01:30:00","Cemetery_Creek","49.07161","-117.77783","N/A","5.6493530273438","degrees Celsius","N/A"
"2019-04-27 09:30:00","Cemetery_Creek","49.07161","-117.77783","N/A","6.2821340560913","degrees Celsius","N/A"
"2019-04-27 17:30:00","Cemetery_Creek","49.07161","-117.77783","N/A","6.7862129211426","degrees Celsius","N/A"
"2019-04-28 01:30:00","Cemetery_Creek","49.07161","-117.77783","N/A","5.0165719985962","degrees Celsius","N/A"
"2019-04-28 09:30:00","Cemetery_Creek","49.07161","-117.77783","N/A","6.0140061378479","degrees Celsius","N/A"
"2019-04-28 17:30:00","Cemetery_Creek","49.07161","-117.77783","N/A","6.989990234375","degrees Celsius","N/A"
"2019-04-29 01:30:00","Cemetery_Creek","49.07161","-117.77783","N/A","5.1667242050171","degrees Celsius","N/A"
"2019-04-29 09:30:00","Cemetery_Creek","49.07161","-117.77783","N/A","5.9067549705505","degrees Celsius","N/A"
"2019-04-29 17:30:00","Cemetery_Creek","49.07161","-117.77783","N/A","7.1723170280457","degrees Celsius","N/A"
"2019-04-30 01:30:00","Cemetery_Creek","49.07161","-117.77783","N/A","4.5661177635193","degrees Celsius","N/A"
"2019-04-30 09:30:00","Cemetery_Creek","49.07161","-117.77783","N/A","5.488477230072","degrees Celsius","N/A"
"2019-04-30 17:30:00","Cemetery_Creek","49.07161","-117.77783","N/A","6.8183879852295","degrees Celsius","N/A"
"2019-05-01 01:30:00","Cemetery_Creek","49.07161","-117.77783","N/A","4.8985958099365","degrees Celsius","N/A"
"2019-05-01 09:30:00","Cemetery_Creek","49.07161","-117.77783","N/A","5.7244291305542","degrees Celsius","N/A"
"2019-05-01 17:30:00","Cemetery_Creek","49.07161","-117.77783","N/A","7.183042049408","degrees Celsius","N/A"
"2019-05-02 01:30:00","Cemetery_Creek","49.07161","-117.77783","N/A","5.3812260627747","degrees Celsius","N/A"
"2019-05-02 09:30:00","Cemetery_Creek","49.07161","-117.77783","N/A","6.3786602020264","degrees Celsius","N/A"
"2019-05-02 17:30:00","Cemetery_Creek","49.07161","-117.77783","N/A","7.9659738540649","degrees Celsius","N/A"
"2019-05-03 01:30:00","Cemetery_Creek","49.07161","-117.77783","N/A","5.6171779632568","degrees Celsius","N/A"
"2019-05-03 09:30:00","Cemetery_Creek","49.07161","-117.77783","N/A","6.8291139602661","degrees Celsius","N/A"
"2019-05-03 17:30:00","Cemetery_Creek","49.07161","-117.77783","N/A","8.8883323669434","degrees Celsius","N/A"
"2019-05-04 01:30:00","Cemetery_Creek","49.07161","-117.77783","N/A","6.560986995697","degrees Celsius","N/A"
"2019-05-04 09:30:00","Cemetery_Creek","49.07161","-117.77783","N/A","7.2581181526184","degrees Celsius","N/A"
"2019-05-04 17:30:00","Cemetery_Creek","49.07161","-117.77783","N/A","9.0384836196899","degrees Celsius","N/A"
"2019-05-05 01:30:00","Cemetery_Creek","49.07161","-117.77783","N/A","7.2366681098938","degrees Celsius","N/A"
"2019-05-05 09:30:00","Cemetery_Creek","49.07161","-117.77783","N/A","7.9016242027283","degrees Celsius","N/A"
"2019-05-05 17:30:00","Cemetery_Creek","49.07161","-117.77783","N/A","8.909782409668","degrees Celsius","N/A"
"2019-05-06 01:30:00","Cemetery_Creek","49.07161","-117.77783","N/A","6.7218627929688","degrees Celsius","N/A"
"2019-05-06 09:30:00","Cemetery_Creek","49.07161","-117.77783","N/A","7.7836480140686","degrees Celsius","N/A"
"2019-05-06 17:30:00","Cemetery_Creek","49.07161","-117.77783","N/A","9.6712646484375","degrees Celsius","N/A"
"2019-05-07 01:30:00","Cemetery_Creek","49.07161","-117.77783","N/A","7.7943730354309","degrees Celsius","N/A"
"2019-05-07 09:30:00","Cemetery_Creek","49.07161","-117.77783","N/A","8.4700536727905","degrees Celsius","N/A"
"2019-05-07 17:30:00","Cemetery_Creek","49.07161","-117.77783","N/A","9.8750419616699","degrees Celsius","N/A"
"2019-05-08 01:30:00","Cemetery_Creek","49.07161","-117.77783","N/A","7.4511690139771","degrees Celsius","N/A"
"2019-05-08 09:30:00","Cemetery_Creek","49.07161","-117.77783","N/A","8.3413524627686","degrees Celsius","N/A"
"2019-05-08 17:30:00","Cemetery_Creek","49.07161","-117.77783","N/A","10.08954334259","degrees Celsius","N/A"
"2019-05-09 01:30:00","Cemetery_Creek","49.07161","-117.77783","N/A","7.5262451171875","degrees Celsius","N/A"
"2019-05-09 09:30:00","Cemetery_Creek","49.07161","-117.77783","N/A","8.4057035446167","degrees Celsius","N/A"
"2019-05-09 17:30:00","Cemetery_Creek","49.07161","-117.77783","N/A","10.218244552612","degrees Celsius","N/A"
"2019-05-10 01:30:00","Cemetery_Creek","49.07161","-117.77783","N/A","7.7943730354309","degrees Celsius","N/A"
"2019-05-10 09:00:00","Cemetery_Creek","49.07161","-117.77783","N/A","8.0517749786377","degrees Celsius","N/A"
"2019-05-10 17:00:00","Cemetery_Creek","49.07161","-117.77783","N/A","11.054801940918","degrees Celsius","N/A"
"2019-05-11 01:00:00","Cemetery_Creek","49.07161","-117.77783","N/A","8.7167310714722","degrees Celsius","N/A"
"2019-05-11 09:00:00","Cemetery_Creek","49.07161","-117.77783","N/A","8.8132572174072","degrees Celsius","N/A"
"2019-05-11 17:00:00","Cemetery_Creek","49.07161","-117.77783","N/A","11.70903301239","degrees Celsius","N/A"
"2019-05-12 01:00:00","Cemetery_Creek","49.07161","-117.77783","N/A","9.360237121582","degrees Celsius","N/A"
"2019-05-12 09:00:00","Cemetery_Creek","49.07161","-117.77783","N/A","9.3495121002197","degrees Celsius","N/A"
"2019-05-12 17:00:00","Cemetery_Creek","49.07161","-117.77783","N/A","12.052236557007","degrees Celsius","N/A"
"2019-05-13 01:00:00","Cemetery_Creek","49.07161","-117.77783","N/A","9.8643159866333","degrees Celsius","N/A"
"2019-05-13 09:00:00","Cemetery_Creek","49.07161","-117.77783","N/A","9.6498146057129","degrees Celsius","N/A"
"2019-05-13 17:00:00","Cemetery_Creek","49.07161","-117.77783","N/A","11.440905570984","degrees Celsius","N/A"
"2019-05-14 01:00:00","Cemetery_Creek","49.07161","-117.77783","N/A","9.0170335769653","degrees Celsius","N/A"
"2019-05-14 09:00:00","Cemetery_Creek","49.07161","-117.77783","N/A","9.135009765625","degrees Celsius","N/A"
"2019-05-14 17:00:00","Cemetery_Creek","49.07161","-117.77783","N/A","10.175344467163","degrees Celsius","N/A"
"2019-05-15 01:00:00","Cemetery_Creek","49.07161","-117.77783","N/A","9.3280611038208","degrees Celsius","N/A"
"2019-05-15 09:00:00","Cemetery_Creek","49.07161","-117.77783","N/A","8.6845560073853","degrees Celsius","N/A"
"2019-05-15 17:00:00","Cemetery_Creek","49.07161","-117.77783","N/A","11.011901855469","degrees Celsius","N/A"
"2019-05-16 01:00:00","Cemetery_Creek","49.07161","-117.77783","N/A","9.7034397125244","degrees Celsius","N/A"
"2019-05-16 09:00:00","Cemetery_Creek","49.07161","-117.77783","N/A","9.9179420471191","degrees Celsius","N/A"
"2019-05-16 17:00:00","Cemetery_Creek","49.07161","-117.77783","N/A","11.226404190063","degrees Celsius","N/A"
"2019-05-17 01:00:00","Cemetery_Creek","49.07161","-117.77783","N/A","9.6390895843506","degrees Celsius","N/A"
"2019-05-17 09:00:00","Cemetery_Creek","49.07161","-117.77783","N/A","9.4567623138428","degrees Celsius","N/A"
"2019-05-17 17:00:00","Cemetery_Creek","49.07161","-117.77783","N/A","10.08954334259","degrees Celsius","N/A"
"2019-05-18 01:00:00","Cemetery_Creek","49.07161","-117.77783","N/A","9.3173360824585","degrees Celsius","N/A"
"2019-05-18 09:00:00","Cemetery_Creek","49.07161","-117.77783","N/A","9.0599336624146","degrees Celsius","N/A"
"2019-05-18 17:00:00","Cemetery_Creek","49.07161","-117.77783","N/A","9.5854635238647","degrees Celsius","N/A"
"2019-05-19 01:00:00","Cemetery_Creek","49.07161","-117.77783","N/A","8.3628034591675","degrees Celsius","N/A"
"2019-05-19 09:00:00","Cemetery_Creek","49.07161","-117.77783","N/A","8.5129537582397","degrees Celsius","N/A"
"2019-05-19 17:00:00","Cemetery_Creek","49.07161","-117.77783","N/A","10.379120826721","degrees Celsius","N/A"
"2019-05-20 01:00:00","Cemetery_Creek","49.07161","-117.77783","N/A","8.2770023345947","degrees Celsius","N/A"
"2019-05-20 09:00:00","Cemetery_Creek","49.07161","-117.77783","N/A","8.0732250213623","degrees Celsius","N/A"
"2019-05-20 17:00:00","Cemetery_Creek","49.07161","-117.77783","N/A","9.3495121002197","degrees Celsius","N/A"
"2019-05-21 01:00:00","Cemetery_Creek","49.07161","-117.77783","N/A","8.191201210022","degrees Celsius","N/A"
"2019-05-21 09:00:00","Cemetery_Creek","49.07161","-117.77783","N/A","8.2341012954712","degrees Celsius","N/A"
"2019-05-21 17:00:00","Cemetery_Creek","49.07161","-117.77783","N/A","10.068093299866","degrees Celsius","N/A"
"2019-05-22 01:00:00","Cemetery_Creek","49.07161","-117.77783","N/A","8.3735275268555","degrees Celsius","N/A"
"2019-05-22 09:00:00","Cemetery_Creek","49.07161","-117.77783","N/A","8.6202049255371","degrees Celsius","N/A"
"2019-05-22 17:00:00","Cemetery_Creek","49.07161","-117.77783","N/A","10.389845848083","degrees Celsius","N/A"
"2019-05-23 01:00:00","Cemetery_Creek","49.07161","-117.77783","N/A","8.3091773986816","degrees Celsius","N/A"
"2019-05-23 09:00:00","Cemetery_Creek","49.07161","-117.77783","N/A","8.5236787796021","degrees Celsius","N/A"
"2019-05-23 17:00:00","Cemetery_Creek","49.07161","-117.77783","N/A","10.7330493927","degrees Celsius","N/A"
"2019-05-24 01:00:00","Cemetery_Creek","49.07161","-117.77783","N/A","8.5665798187256","degrees Celsius","N/A"
"2019-05-24 09:00:00","Cemetery_Creek","49.07161","-117.77783","N/A","8.8776073455811","degrees Celsius","N/A"
"2019-05-24 17:00:00","Cemetery_Creek","49.07161","-117.77783","N/A","10.389845848083","degrees Celsius","N/A"
"2019-05-25 01:00:00","Cemetery_Creek","49.07161","-117.77783","N/A","9.0599336624146","degrees Celsius","N/A"
"2019-05-25 09:00:00","Cemetery_Creek","49.07161","-117.77783","N/A","9.2100858688354","degrees Celsius","N/A"
"2019-05-25 17:00:00","Cemetery_Creek","49.07161","-117.77783","N/A","10.615073204041","degrees Celsius","N/A"
"2019-05-26 01:00:00","Cemetery_Creek","49.07161","-117.77783","N/A","9.3173360824585","degrees Celsius","N/A"
"2019-05-26 09:00:00","Cemetery_Creek","49.07161","-117.77783","N/A","9.1993598937988","degrees Celsius","N/A"
"2019-05-26 17:00:00","Cemetery_Creek","49.07161","-117.77783","N/A","10.808124542236","degrees Celsius","N/A"
"2019-05-27 01:00:00","Cemetery_Creek","49.07161","-117.77783","N/A","8.7489061355591","degrees Celsius","N/A"
"2019-05-27 09:00:00","Cemetery_Creek","49.07161","-117.77783","N/A","8.8132572174072","degrees Celsius","N/A"
"2019-05-27 17:00:00","Cemetery_Creek","49.07161","-117.77783","N/A","11.580331802368","degrees Celsius","N/A"
"2019-05-28 01:00:00","Cemetery_Creek","49.07161","-117.77783","N/A","9.4782133102417","degrees Celsius","N/A"
"2019-05-28 09:00:00","Cemetery_Creek","49.07161","-117.77783","N/A","9.3495121002197","degrees Celsius","N/A"
"2019-05-28 17:00:00","Cemetery_Creek","49.07161","-117.77783","N/A","11.848459243774","degrees Celsius","N/A"
"2019-05-29 01:00:00","Cemetery_Creek","49.07161","-117.77783","N/A","9.7034397125244","degrees Celsius","N/A"
"2019-05-29 09:00:00","Cemetery_Creek","49.07161","-117.77783","N/A","9.5532884597778","degrees Celsius","N/A"
"2019-05-29 17:00:00","Cemetery_Creek","49.07161","-117.77783","N/A","11.848459243774","degrees Celsius","N/A"
"2019-05-30 01:00:00","Cemetery_Creek","49.07161","-117.77783","N/A","9.8643159866333","degrees Celsius","N/A"
"2019-05-30 09:00:00","Cemetery_Creek","49.07161","-117.77783","N/A","9.7999658584595","degrees Celsius","N/A"
"2019-05-30 17:00:00","Cemetery_Creek","49.07161","-117.77783","N/A","11.387280464172","degrees Celsius","N/A"
"2019-05-31 01:00:00","Cemetery_Creek","49.07161","-117.77783","N/A","10.121718406677","degrees Celsius","N/A"
"2019-05-31 09:00:00","Cemetery_Creek","49.07161","-117.77783","N/A","10.121718406677","degrees Celsius","N/A"
"2019-05-31 17:00:00","Cemetery_Creek","49.07161","-117.77783","N/A","11.644682884216","degrees Celsius","N/A"
"2019-06-01 01:00:00","Cemetery_Creek","49.07161","-117.77783","N/A","10.20751953125","degrees Celsius","N/A"
"2019-06-01 09:00:00","Cemetery_Creek","49.07161","-117.77783","N/A","10.153894424438","degrees Celsius","N/A"
"2019-06-01 17:00:00","Cemetery_Creek","49.07161","-117.77783","N/A","11.623232841492","degrees Celsius","N/A"
"2019-06-02 01:00:00","Cemetery_Creek","49.07161","-117.77783","N/A","10.32549571991","degrees Celsius","N/A"
"2019-06-02 09:00:00","Cemetery_Creek","49.07161","-117.77783","N/A","10.20751953125","degrees Celsius","N/A"
"2019-06-02 17:00:00","Cemetery_Creek","49.07161","-117.77783","N/A","11.333654403687","degrees Celsius","N/A"
"2019-06-03 01:00:00","Cemetery_Creek","49.07161","-117.77783","N/A","10.068093299866","degrees Celsius","N/A"
"2019-06-03 09:00:00","Cemetery_Creek","49.07161","-117.77783","N/A","10.239694595337","degrees Celsius","N/A"
"2019-06-03 17:00:00","Cemetery_Creek","49.07161","-117.77783","N/A","10.722324371338","degrees Celsius","N/A"
"2019-06-04 01:00:00","Cemetery_Creek","49.07161","-117.77783","N/A","9.3495121002197","degrees Celsius","N/A"
"2019-06-04 09:00:00","Cemetery_Creek","49.07161","-117.77783","N/A","9.2851610183716","degrees Celsius","N/A"
"2019-06-04 17:00:00","Cemetery_Creek","49.07161","-117.77783","N/A","10.250419616699","degrees Celsius","N/A"
"2019-06-05 01:00:00","Cemetery_Creek","49.07161","-117.77783","N/A","9.0706596374512","degrees Celsius","N/A"
"2019-06-05 09:00:00","Cemetery_Creek","49.07161","-117.77783","N/A","9.360237121582","degrees Celsius","N/A"
"2019-06-05 17:00:00","Cemetery_Creek","49.07161","-117.77783","N/A","9.8428659439087","degrees Celsius","N/A"
"2019-06-06 01:00:00","Cemetery_Creek","49.07161","-117.77783","N/A","9.7356147766113","degrees Celsius","N/A"
"2019-06-06 09:00:00","Cemetery_Creek","49.07161","-117.77783","N/A","9.6283645629883","degrees Celsius","N/A"
"2019-06-06 17:00:00","Cemetery_Creek","49.07161","-117.77783","N/A","10.186068534851","degrees Celsius","N/A"
"2019-06-07 01:00:00","Cemetery_Creek","49.07161","-117.77783","N/A","8.9634084701538","degrees Celsius","N/A"